Regional Weather Roundup
Issued by NWS Huntsville, AL

Home | Current Version | Previous Version | Text Only | Print | Product List | Glossary On
Versions: 1 2 3 4 5 6 7 8 9 10 11 12 13 14 15 16 17 18 19 20 21 22 23 24 25 26 27 28 29 30 31 32 33 34 35 36 37 38 39 40 41 42 43 44 45 46 47 48 49 50
000
ASUS44 KHUN 210510
RWRHUN

WEATHER ROUNDUP FOR THE TENNESSEE VALLEY
NATIONAL WEATHER SERVICE HUNTSVILLE AL
1100 PM CST TUE FEB 20 2018

ALZ001>004-210600-
NORTHWEST ALABAMA

CITY           SKY/WX    TMP DP  RH WIND       PRES   REMARKS
SHOALS AIRPORT FAIR      71  60  68 S10       30.23R
$$

ALZ005>007-016-210600-
NORTH CENTRAL ALABAMA

CITY           SKY/WX    TMP DP  RH WIND       PRES   REMARKS
DECATUR AP     CLOUDY    69  63  81 SE8       30.26R
HUNTSVILLE AP  CLOUDY    70  65  84 SE10      30.25S
MERIDIANVILLE  CLOUDY    70  63  77 S9        30.27R
REDSTONE ARSN  CLOUDY    69  64  82 S9        30.25R
VINEMONT AP    FAIR      67  63  85 S8        30.29R
$$

ALZ008>010-210600-
NORTHEAST ALABAMA

CITY           SKY/WX    TMP DP  RH WIND       PRES   REMARKS
FORT PAYNE     FAIR      68  61  77 MISG      30.30R
SCOTTSBORO AP  CLOUDY    70  64  83 S9G15     30.29R
$$

TNZ076-096-097-210600-
SOUTHEASTERN MIDDLE TENNESSEE

CITY           SKY/WX    TMP DP  RH WIND       PRES   REMARKS
TULLAHOMA      MOCLDY    68  61  77 S12       30.26R
WINCHESTER     CLEAR     68  61  77 S16       30.27S
$$

...SURROUNDING SITES...

CITY           SKY/WX    TMP DP  RH WIND       PRES   REMARKS
ATLANTA        MOCLDY    69  63  81 SE7       30.36R
ANNISTON       FAIR      70  64  81 SE6G17    30.31R
BIRMINGHAM     MOCLDY    71  64  78 S9        30.30R
CHATTANOOGA    MOCLDY    68  61  78 S6        30.32R
CORINTH        FAIR      70  61  73 S10       30.16R
DALTON         FAIR      66  61  82 S6        30.34R
GADSDEN        CLOUDY    70  66  87 SE7       30.30R
GOLDEN TRNGL   CLOUDY    72  65  78 S14       30.22R
HALEYVILLE     CLOUDY    68  65  90 S12       30.27R
JACKSON TN     FAIR      73  62  68 S16G33    30.11R
MEMPHIS        MOCLDY    73  63  70 S21       30.09R
NASHVILLE      FAIR      71  60  68 S16       30.19F
OXFORD MS      MOCLDY    70  63  78 S13G21    30.16R
ROME           CLOUDY    70  64  81 SE8       30.32R
SAVANNAH       MOCLDY    72  61  68 S12G20    30.16R
SELMER         PTCLDY    72  61  68 S13G21    30.15R
TUPELO         FAIR      71  62  73 SE13      30.18R
TUSCALOOSA     CLOUDY    73  67  81 S10       30.25R
$$

...GULF COAST WEATHER...

CITY           SKY/WX    TMP DP  RH WIND       PRES   REMARKS
GULFPORT       FOG       72  72 100 SE17      30.21S VSB 1/2
PASCAGOULA     CLOUDY    72  70  93 SE13      30.23S
MOBILE         CLOUDY    72  69  90 SE12      30.25S
GULF SHORES    CLOUDY    71  71 100 SE14      30.26S
PENSACOLA      CLOUDY    71  69  93 MISG      30.27R FOG
DESTIN         CLOUDY    73  67  81 SE8       30.28F
PANAMA CITY    FAIR      69  66  89 E5        30.30S
APPALACHICOLA  FAIR      70  69  97 E5        30.30S
$$




USA.gov is the U.S. government's official web portal to all federal, state and local government web resources and services.